Regional Weather Roundup
Issued by NWS

Home | Current Version | Previous Version | Text Only | Print | Product List | Glossary On
Versions: 1 2 3 4 5 6 7 8 9 10 11 12 13 14 15 16 17 18 19 20 21 22 23 24 25 26 27 28 29 30 31 32 33 34 35 36 37 38 39 40 41 42 43 44 45 46 47 48 49 50
000
ASUS44 KLIX 071511
RWRLA
LOUISIANA WEATHER ROUNDUP
NATIONAL WEATHER SERVICE NEW ORLEANS LA
1000 AM CDT TUE JUL 07 2015

NOTE: "FAIR" INDICATES FEW OR NO CLOUDS BELOW 12,000 FEET WITH NO
      SIGNIFICANT WEATHER AND/OR OBSTRUCTIONS TO VISIBILITY.
      SKY/WX - SKY CONDITION AND SIGNIFICANT WEATHER.
      TMP - AIR TEMPERATURE.    DP   - DEWPOINT TEMPERATURE.
      RH  - RELATIVE HUMIDITY.  PRES - PRESSURE.
      HX  - HEAT INDEX.         WCI  - WIND CHILL INDEX.

*  THESE STATIONS ARE NOT NWS OR FAA STATIONS AND ARE NOT UNDER
   NWS QUALITY CONTROL.

LAZ040-048-061>063-065-066-069-071600-
SOUTHEAST LOUISIANA

CITY           SKY/WX    TMP DP  RH WIND       PRES   REMARKS
N.O. AUDUBON     N/A     89  77  65 MISG        N/A  HX 101
N.O. INTL ARPT MOSUNNY   88  74  63 S13       30.13R HX  96
N.O. LAKEFRONT MOSUNNY   89  75  63 S12       30.14R HX  99
N.O. DOWNTOWN* FAIR      90  73  58 S9        30.14S HX  98
RESERVE*       FAIR      89  76  67 S8        30.13S HX 100
SLIDELL        MOSUNNY   87  76  69 S12       30.14R HX  97
BATON ROUGE    PTSUNNY   87  76  69 S13       30.12S HX  97
BOOTHVILLE     SUNNY     87  76  69 S12       30.15S HX  97
BELLE CHASSE   PTSUNNY   87  75  67 S10       30.13S HX  96
BOGALUSA*        N/A     86  74  68 S9        30.16S
GALLIANO*      MOSUNNY   89  74  62 SE8       30.14R HX  98
NEW ROADS*     PTSUNNY  N/A N/A N/A SE9       30.11S
GONZALES*      FAIR      86  79  79 S7        30.11F HX  99
HAMMOND*       PTSUNNY   88  73  62 S10       30.14F HX  96
HOUMA*         MOSUNNY   86  75  70 SE12      30.12S HX  95
PORT FOURCHON*   N/A     88  75  66 S14       30.14R HX  97

$$

LAZ041-044-053-054-071600-
SOUTHWEST LOUISIANA

CITY           SKY/WX    TMP DP  RH WIND       PRES   REMARKS
LAKE CHARLES   PTSUNNY   88  76  67 S9        30.08S HX  99
LAFAYETTE      SUNNY     86  75  69 S13       30.10S HX  95
PATTERSON      PTSUNNY   86  75  70 S10       30.13S HX  95
SALT POINT       N/A     88  78  72 VRB6      30.10R HX 101
NEW IBERIA     NOT AVBL
CHENAULT AIRPK MOSUNNY   88  75  66 S18       30.09S HX  97

$$

LAZ027-028-071600-
CENTRAL LOUISIANA

CITY           SKY/WX    TMP DP  RH WIND       PRES   REMARKS
FORT POLK      MOSUNNY   84  75  74 S13       30.07S
ALEXANDRIA INT MOSUNNY   85  77  77 S9        30.07S HX  95
ALEXANDRIA     MOSUNNY   88  76  67 S8        30.09F HX  99

$$

LAZ001-002-071600-
NORTHWEST LOUISIANA

CITY           SKY/WX    TMP DP  RH WIND       PRES   REMARKS
SHREVEPORT     PTSUNNY   86  75  69 S13       30.04S HX  95
BARKSDALE AFB  MOSUNNY   83  76  78 S13       30.04F
DTN SHREVEPORT PTSUNNY   84  75  74 S14       30.04F

$$

LAZ014-016-071600-
NORTHEAST LOUISIANA

CITY           SKY/WX    TMP DP  RH WIND       PRES   REMARKS
MONROE         MOSUNNY   85  76  74 SW12      30.08S
TALLULAH       CLOUDY    84  76  76 S8        30.11S

$$



USA.gov is the U.S. government's official web portal to all federal, state and local government web resources and services.